Domov               UVHVVR             MKGP            O straneh              
ZDRAVSTVENO VARSTVO RASTLIN
  MREŽA AGROMET. POSTAJ
 ► PROGNOSTIČNA OBVESTILA
AGROMETEOROLOŠKI PODATKI -
ARSO
OBVLADOVANJE TVEGANJ ZARADI
NEUGODNIH VREMENSKIH RAZMER
  ► NARAVNE NESREČE
  ► SUŠA/MOČA
  ► NAMAKANJE
  ► ŽLED (gozdarstvo)
KARTOGRAFSKI PRIKAZI
SPLETNE POVEZAVE
PROJEKTI IN PUBLIKACIJE

AGROMETEOROLOŠKA MREŽA: VREMENSKE POSTAJE IN FENOLOŠKA OPAZOVANJA

Pregled podatkov za lokacijo Zbigovci, meteorološka postaja 25164

Pregled senzorjev na lokaciji

ID Ime Zadnja
vrednost
Datum
zadnje
spremembe
Tip
senzorja
1931 Omočenost lista (U) 0 U 26.3.2019 18:30 A730WET
1930 Padavine (mm) 0 mm 26.3.2019 18:30 Generic 0.2 mm
1932 Relativna vlaga 2 m (% RH) 38,36 % RH 26.3.2019 18:30 Generic 0 - 100 %
1933 Temperatura 2 m (°C) 10,21 °C 26.3.2019 18:30 Generic -40 - +60 °C

Pregled podatkov zadnjih 24 ur

Zap.
št.
Datum in čas Zbigovci
Omočenost
lista
Padavine Relativna
vlaga
2
m
Temperatura
2
m
1 26.3.2019 18:00
2 26.3.2019 17:30 0 0 38,4 10,2
3 26.3.2019 17:00 0 0 33,6 9,8
4 26.3.2019 16:30 0 0 32,4 10,9
5 26.3.2019 16:00 0 0 35,4 10,6
6 26.3.2019 15:30 0 0 30,6 11
7 26.3.2019 15:00 0 0 33,2 10,4
8 26.3.2019 14:30 0 0 33,9 11,8
9 26.3.2019 14:00 0 0 36,8 10,4
10 26.3.2019 13:30 0 0 31,4 10,6
11 26.3.2019 13:00 0 0 34,1 10,9
12 26.3.2019 12:30 0 0 34,5 10,4
13 26.3.2019 12:00 0 0 36,2 9,7
14 26.3.2019 11:30 0 0 38,8 9
15 26.3.2019 11:00 0 0 41,1 8,8
16 26.3.2019 10:30 0 0 44,3 8,1
17 26.3.2019 10:00 0 0 45,3 7,8
18 26.3.2019 09:30 0 0 51,3 7,1
19 26.3.2019 09:00 0 0 52,7 6,5
20 26.3.2019 08:30 0 0 56,3 5,9
21 26.3.2019 08:00 0 0 53,8 5,2
22 26.3.2019 07:30 0 0 57,5 4,2
23 26.3.2019 07:00 0 0 61,2 3,7
24 26.3.2019 06:30 0 0 61,8 3,3
25 26.3.2019 06:00 0 0 66,6 3,2
26 26.3.2019 05:30 0 0 67,3 3,3
27 26.3.2019 05:00 0 0 66,4 3,6
28 26.3.2019 04:30 0 0 64,2 3,8
29 26.3.2019 04:00 0 0 63,9 3,9
30 26.3.2019 03:30 0 0 62,9 4,3
31 26.3.2019 03:00 0 0 58,6 4,5
32 26.3.2019 02:30 0 0 63,5 4,3
33 26.3.2019 02:00 0 0 65,5 4,5
34 26.3.2019 01:30 0 0 62,6 4,7
35 26.3.2019 01:00 0 0 57,4 5,4
36 26.3.2019 00:30 0 0 51,2 5,4
37 26.3.2019 00:00 0 0 59,1 5,6
38 25.3.2019 23:30 0 0 54,7 5,6
39 25.3.2019 23:00 0 0 63,7 5,8
40 25.3.2019 22:30 0 0 50,8 6,5
41 25.3.2019 22:00 0 0 45,3 7
42 25.3.2019 21:30 2 0 45,6 5,9
43 25.3.2019 21:00 10 0 60,8 5,7
44 25.3.2019 20:30 10 0 61,4 5,9
45 25.3.2019 20:00 3 0 59,4 6,4
46 25.3.2019 19:30 4 0 54,2 7,2
47 25.3.2019 19:00 10 0 53,7 7
48 25.3.2019 18:30 2 0 67,4 7,6
© 2011 Ministrstvo za kmetijstvo, gozdarstvo in prehrano. Vse pravice pridržane.